Canberra, Australia

5:50 PM AEDT on December 10, 2016 (GMT +1100)
Canberra

Weather History for 94926 - August, 2013

Change the Weather History Date:

Wednesday, August 28, 2013

  Actual Average Record
Temperature  
Mean Temperature 49 °F -  
Max Temperature 68 °F 61 °F - ()
Min Temperature 30 °F 38 °F - ()
Degree Days  
Heating Degree Days 16    
Moisture  
Dew Point 39 °F    
Average Humidity 75    
Maximum Humidity 100    
Minimum Humidity 24    
Precipitation  
Precipitation 0.00 in 0.07 in - ()
Sea Level Pressure  
Sea Level Pressure 30.16 in    
Wind  
Wind Speed 4 mph ()    
Max Wind Speed 18 mph    
Max Gust Speed -    
Visibility 5.0 miles    
Events Fog , Rain , Thunderstorm    
T = Trace of Precipitation, MM = Missing Value Source: Averaged Metar Reports

Daily Weather History Graph

Daily Weather History Graph

Search for Another Location

Airport or City:

Trip Planner

Search our weather history database for the weather conditions in past years. The results will help you decide how hot, cold, wet, or windy it might be!

Date:

Astronomy

Aug. 28, 2013 Rise Set
Actual Time 6:28 AM AEST 5:41 PM AEST
Civil Twilight 6:02 AM AEST 6:06 PM AEST
Nautical Twilight 5:33 AM AEST 6:36 PM AEST
Astronomical Twilight 5:03 AM AEST 7:05 PM AEST
Moon 12:06 AM AEST (8/28) 10:38 AM AEST (8/28)
Length of Visible Light 12h 03m
Length of Day
11h 12m
Waning Gibbous, 53% of the Moon is Illuminated
Aug 28
Waning Gibbous
Aug 28
Last Quarter
Sep 5
New
Sep 13
First Quarter
Sep 19
Full

Hourly Weather History & Observations

Time (AEST) Temp. Windchill Dew Point Humidity Pressure Visibility Wind Dir Wind Speed Gust Speed Precip Events Conditions
12:00 AM 40 °F - 38 °F 89% 30.16 in - East 2.2 mph - -  
12:00 AM 41.0 °F - 37.4 °F 87% 30.12 in 6.2 mi East 1.2 mph - N/A   Unknown
12:30 AM 37.4 °F - 35.6 °F 93% 30.12 in 6.2 mi NNW 2.3 mph - N/A   Unknown
1:00 AM 38 °F - 37 °F 96% 30.16 in - Calm Calm - -  
1:00 AM 39.2 °F - 37.4 °F 93% 30.12 in 6.2 mi Calm Calm - N/A   Unknown
1:30 AM 37.4 °F - 37.4 °F 100% 30.12 in 6.2 mi SSE 1.2 mph - N/A   Unknown
2:00 AM 37.4 °F - 35.6 °F 93% 30.12 in 6.2 mi Calm Calm - N/A   Unknown
2:33 AM 35.6 °F - 35.6 °F 100% 30.12 in 3.7 mi Calm Calm - N/A   Unknown
2:51 AM 37.4 °F - 35.6 °F 93% 30.12 in 6.2 mi Calm Calm - N/A   Unknown
3:00 AM 36 °F - 35 °F 95% 30.16 in - Calm Calm - -  
3:00 AM 35.6 °F - 35.6 °F 100% 30.12 in 6.2 mi Calm Calm - N/A   Unknown
3:30 AM 35.6 °F - 33.8 °F 93% 30.12 in 6.2 mi Calm Calm - N/A   Unknown
3:46 AM 33.8 °F - 32.0 °F 93% 30.12 in 3.1 mi Calm Calm - N/A   Unknown
4:00 AM 33 °F - 32 °F 92% 30.16 in - East 6.7 mph - -  
4:00 AM 32.0 °F 28.7 °F 32.0 °F 100% 30.12 in 4.3 mi East 3.5 mph - N/A   Unknown
4:04 AM 33.8 °F 30.8 °F 32.0 °F 93% 30.12 in 0.5 mi East 3.5 mph - N/A   Unknown
4:30 AM 33.8 °F - 32.0 °F 93% 30.12 in 5.0 mi Calm Calm - N/A   Clear
4:50 AM 33.8 °F - 32.0 °F 93% 30.12 in 6.2 mi NNW 2.3 mph - N/A   Clear
5:14 AM 32.0 °F - 32.0 °F 100% 30.15 in 5.0 mi Calm Calm - N/A Fog Shallow Fog
5:30 AM 32.0 °F - 32.0 °F 100% 30.15 in 5.0 mi Calm Calm - N/A Fog Shallow Fog
5:43 AM 32.0 °F - 30.2 °F 93% 30.15 in 6.2 mi North 1.2 mph - N/A Fog Patches of Fog
5:55 AM 32.0 °F 27.5 °F 30.2 °F 93% 30.15 in 0.5 mi North 4.6 mph - N/A Fog Fog
6:00 AM 33 °F - 32 °F 94% 30.20 in - North 5.8 mph - -  
6:00 AM 32.0 °F 26.4 °F 32.0 °F 100% 30.15 in 0.4 mi North 5.8 mph - N/A Fog Fog
6:11 AM 30.2 °F 25.4 °F 30.2 °F 100% 30.15 in 0.2 mi NNE 4.6 mph - N/A Fog Fog
6:20 AM 33.8 °F 29.6 °F 33.8 °F 100% 30.15 in 0.1 mi ESE 4.6 mph - N/A Fog Fog
6:30 AM 33.8 °F 30.8 °F 33.8 °F 100% 30.15 in 0.1 mi ENE 3.5 mph - N/A Fog Fog
6:51 AM 33.8 °F - 33.8 °F 100% 30.15 in 0.3 mi Calm Calm - N/A Fog Fog
7:00 AM 34 °F - 34 °F 98% 30.21 in - NNE 2.2 mph - -  
7:00 AM 33.8 °F - 33.8 °F 100% 30.18 in 0.2 mi NNE 1.2 mph - N/A Fog Fog
7:10 AM 33.8 °F - 33.8 °F 100% 30.18 in 0.5 mi WNW 2.3 mph - N/A Fog Fog
7:19 AM 35.6 °F - 33.8 °F 93% 30.18 in 1.9 mi Calm Calm - N/A   Partly Cloudy
7:30 AM 35.6 °F - 35.6 °F 100% 30.18 in 6.2 mi Calm Calm - N/A Fog Shallow Fog
7:41 AM 37.4 °F - 37.4 °F 100% 30.18 in 5.0 mi Calm Calm - N/A Fog Patches of Fog
8:00 AM 41.0 °F - 41.0 °F 100% 30.18 in 6.2 mi Calm Calm - N/A   Partly Cloudy
8:30 AM 42.8 °F 40.1 °F 42.8 °F 100% 30.18 in - North 4.6 mph - N/A   Clear
9:00 AM 48 °F - 44 °F 81% 30.23 in - North 6.7 mph - -  
9:00 AM 48.2 °F - 44.6 °F 87% 30.18 in - North 3.5 mph - N/A   Clear
9:30 AM 51.8 °F - 44.6 °F 76% 30.18 in 6.2 mi ESE 1.2 mph - N/A   Partly Cloudy
10:00 AM 57 °F - 46 °F 57% 30.22 in - West 6.7 mph - -  
10:00 AM 57.2 °F - 46.4 °F 67% 30.18 in 6.2 mi West 3.5 mph - N/A   Partly Cloudy
10:30 AM 59.0 °F - 44.6 °F 59% 30.18 in 6.2 mi WNW 4.6 mph - N/A   Partly Cloudy
11:00 AM 60.8 °F - 44.6 °F 55% 30.18 in 6.2 mi NW 4.6 mph - N/A   Partly Cloudy
11:30 AM 62.6 °F - 44.6 °F 52% 30.15 in 6.2 mi NNW 4.6 mph - N/A   Partly Cloudy
12:00 PM 65 °F - 41 °F 29% 30.18 in - WSW 11.2 mph - -  
12:00 PM 64.4 °F - 41.0 °F 42% 30.15 in 6.2 mi WSW 5.8 mph - N/A   Partly Cloudy
12:30 PM 66.2 °F - 41.0 °F 40% 30.12 in 6.2 mi WNW 5.8 mph - N/A   Partly Cloudy
1:00 PM 66 °F - 39 °F 26% 30.16 in - WSW 15.7 mph - -  
1:00 PM 66.2 °F - 39.2 °F 37% 30.12 in 6.2 mi WSW 8.1 mph - N/A   Partly Cloudy
1:30 PM 68.0 °F - 39.2 °F 35% 30.12 in 6.2 mi West 5.8 mph - N/A   Partly Cloudy
2:00 PM 68.0 °F - 37.4 °F 33% 30.09 in 6.2 mi NW 8.1 mph - N/A   Partly Cloudy
2:30 PM 68.0 °F - 37.4 °F 33% 30.09 in 6.2 mi NNW 9.2 mph - N/A   Scattered Clouds
3:00 PM 65 °F - 37 °F 24% 30.14 in - North 9.2 mph - -  
3:00 PM 66.2 °F - 37.4 °F 35% 30.09 in 6.2 mi North 9.2 mph - N/A   Scattered Clouds
3:30 PM 68.0 °F - 41.0 °F 37% 30.09 in 6.2 mi West 8.1 mph - N/A   Scattered Clouds
4:00 PM 66 °F - 40 °F 27% 30.14 in - NNW 6.9 mph - -  
4:00 PM 66.2 °F - 39.2 °F 37% 30.09 in 6.2 mi NNW 6.9 mph - N/A   Scattered Clouds
4:30 PM 66.2 °F - 41.0 °F 40% 30.12 in 6.2 mi NNW 9.2 mph - N/A   Scattered Clouds
5:00 PM 64.4 °F - 39.2 °F 40% 30.12 in 6.2 mi NNE 8.1 mph - N/A   Scattered Clouds
5:22 PM 64.4 °F - 41.0 °F 42% 30.12 in 6.2 mi NNE 8.1 mph - N/A Rain , Thunderstorm Light Thunderstorms and Rain
5:30 PM 64.4 °F - 41.0 °F 42% 30.12 in 6.2 mi North 8.1 mph - N/A Rain , Thunderstorm Light Thunderstorms and Rain
5:56 PM 59.0 °F - 42.8 °F 55% 30.15 in 6.2 mi SE 18.4 mph - N/A Rain Rain Showers
6:00 PM 58 °F - 44 °F 50% 30.19 in - SE 18.4 mph - -  
6:00 PM 59.0 °F - 44.6 °F 59% 30.15 in 6.2 mi SE 18.4 mph - N/A Rain Light Rain Showers
6:30 PM 57.2 °F - 44.6 °F 63% 30.15 in 6.2 mi ESE 12.7 mph - N/A   Scattered Clouds
7:00 PM 53 °F - 43 °F 59% 30.21 in - ESE 8.9 mph - -  
7:00 PM 53.6 °F - 42.8 °F 67% 30.18 in 6.2 mi ESE 4.6 mph - N/A   Partly Cloudy
7:30 PM 51.8 °F - 42.8 °F 71% 30.18 in 6.2 mi ESE 5.8 mph - N/A   Partly Cloudy
8:00 PM 50.0 °F - 44.6 °F 82% 30.18 in - ESE 4.6 mph - N/A   Clear
8:30 PM 51.8 °F - 44.6 °F 76% 30.18 in - South 5.8 mph - N/A   Clear
9:00 PM 50 °F - 44 °F 75% 30.25 in - SE 8.1 mph - -  
9:00 PM 50.0 °F - 44.6 °F 82% 30.21 in 6.2 mi SE 8.1 mph - N/A   Unknown
9:30 PM 46.4 °F 42.9 °F 42.8 °F 87% 30.21 in 6.2 mi South 6.9 mph - N/A   Unknown
10:00 PM 47 °F - 43 °F 81% 30.25 in - SE 11.2 mph - -  
10:00 PM 46.4 °F 43.5 °F 42.8 °F 87% 30.21 in 6.2 mi SE 5.8 mph - N/A   Unknown
10:30 PM 44.6 °F 41.4 °F 41.0 °F 87% 30.21 in 6.2 mi SSE 5.8 mph - N/A   Unknown
11:00 PM 44.6 °F 40.2 °F 42.8 °F 93% 30.21 in 6.2 mi South 8.1 mph - N/A   Unknown
11:30 PM 42.8 °F 38.6 °F 41.0 °F 93% 30.21 in 6.2 mi SE 6.9 mph - N/A   Scattered Clouds